カタログに戻る

STARLINK-3874

運用中通信VLEO
NORAD 52365·PAYLOAD·🇺🇸 United States

打ち上げ Apr 29, 2022 から Cape Canaveral Space Force Station

Loading…

次のパス (今後24時間)

TLE

最新Source: CelesTrak SupGP

元期: Sep 15, 2026, 01:59 UTC

1 52365C 22045AL  26258.08312500 -.00053302  00000+0 -15750-2 0  2588
2 52365  53.1596  50.6995 0001134  84.1707  75.2934 15.34414227    16

AllMySatでSTARLINK-3874をリアルタイム追跡

Download on the App Store